Tracking 30923 objects as of 1-Jul-2025
HD Live streaming from Space Station
objects crossing your sky now

COSMOS 2251 DEB

Track COSMOS 2251 DEB now!
10-day predictions


NORAD ID: 34141
Int'l Code: 1993-036LN
Perigee: 702.6 km
Apogee: 783.9 km
Inclination: 74.0 °
Period: 99.5 minutes
Semi major axis: 7114 km
RCS: 0.033 m2 (small)
Launch date: June 16, 1993
Source: Commonwealth of Independent States (former USSR) (CIS)
Launch site: PLESETSK MISSILE AND SPACE COMPLEX (PKMTR)

Note: This is SATELLITE DEBRIS
Your satellite tracking list
Your tracking list is empty




NASA's NSSDC Master Catalog

Two Line Element Set (TLE):
1 34141U 93036LN  25181.90109116  .00003604  00000-0  98189-3 0  9999
2 34141  74.0125 337.8002 0057147 102.3809  19.8405 14.46800616853081
Source of the keplerian elements: AFSPC